Regional Weather Roundup
Issued by NWS Newport/Morehead, NC

Current Version | Previous Version | Graphics & Text | Print | Product List | Glossary Off
Versions: 1 2 3 4 5 6 7 8 9 10 11 12 13 14 15 16 17 18 19 20 21 22 23 24 25 26 27 28 29 30 31 32 33 34 35 36 37 38 39 40 41 42 43 44 45 46 47 48 49 50

000
ASUS42 KMHX 260913
RWRMHX
WEATHER ROUNDUP FOR EASTERN NORTH CAROLINA
NATIONAL WEATHER SERVICE NEWPORT/MOREHEAD CITY NC
500 AM EDT FRI AUG 26 2016

NOTE: "FAIR" INDICATES FEW OR NO CLOUDS BELOW 12,000 FEET
WITH NO SIGNIFICANT WEATHER AND/OR OBSTRUCTIONS TO VISIBILITY

NCZ015>017-031-032-045>047-102-103-261000-
NORTH COAST

CITY           SKY/WX    TMP DP  RH WIND       PRES   REMARKS
EDENTON        FAIR      78  69  73 SW8       30.09F
ELIZABETH CITY FAIR      72  69  90 S3        30.08F
KITTY HAWK     FAIR      76  71  85 CALM      30.08S
MANTEO         FAIR      77  70  80 W7        30.09S

$$

NCZ045>047-081-094-103-104-261000-
CENTRAL COAST

CITY           SKY/WX    TMP DP  RH WIND       PRES   REMARKS
FRISCO         FAIR      73  65  75 SW5       30.09S

$$

NCZ095-097-098-100-101-261000-
SOUTHERN COAST

CITY           SKY/WX    TMP DP  RH WIND       PRES   REMARKS
BEAUFORT       FAIR      70  68  93 CALM      30.09S
CEDAR ISLAND   NOT AVBL
JACKSONVILLE   FAIR      71  68  90 CALM      30.09S
PINEY ISLAND   NOT AVBL
WILMINGTON     FAIR      71  68  90 CALM      30.09S


$$

NCZ011>013-027>030-043-044-078>080-089-090>093-098-261000-
COASTAL PLAIN

CITY           SKY/WX    TMP DP  RH WIND       PRES   REMARKS
AHOSKIE        FAIR      71  67  89 CALM      30.08S
CLINTON        FAIR      71  71 100 CALM      30.10S
ELIZABETHTOWN  FAIR      71  70  98 CALM      30.09S
GOLDSBORO      FAIR      72  72 100 S2        30.07F
GREENVILLE     FAIR      72  68  88 SW5       30.10F
HAVELOCK       FAIR      71  68  90 CALM      30.10S
KENANSVILLE    FAIR      68  66  94 CALM      30.10S
KINSTON        FAIR      71  68  92 CALM      30.09F
NEW BERN       FAIR      70  68  93 CALM      30.10F
RICHLANDS      FAIR      68  67  96 CALM      30.10S
ROCKY MOUNT    FAIR      72  70  93 S5        30.08F
WASHINGTON     FAIR      72  68  87 CALM      30.09F
WHITEVILLE     FAIR      70  69  95 CALM      30.09S

$$

AMZ130-135-150-152-154-156-158-170-250-252-270-ANZ085-086-088-633-658-670-261000-
MARINE OBSERVATIONS

STATION/POSITION TIME  TEMP    WIND        PRES    WAVE   SWELL
                       AIR SEA DIR/SP/G            HT/PER HT/PER
                 (UTC) (F)     (DEG/KT/KT) (MB)    (FT/S) (FT/S)
CHESAPEAKE LIGHT NOT AVBL
64 E VA BEACH    0850   80 80  220/ 12/ 14 1018.1    3/ 8   2/ 8
DUCK             0800   79 79  210/  8/ 10 1018.1
2 E DUCK         0811      78                N/A     2/ 9
OREGON INLET     0800   80 81  190/  8/  9 1018.8
13E OREGON INLT  0900      77                N/A     2/ 8   2/ 8
HATTERAS CG      0800   80 81  190/  3/  4 1018.5
DIAMOND BUOY     0850   80 84  190/  2/  4 1018.7    3/ 8   3/ 8
CAPE LOOKOUT     0900   80     200/  2/  2 1018.5
BEAUFORT LAB     0800   80 81  200/  4/  4 1018.2
30 SE NEW RVR IN 0808   81 84  120/  2/  4 1018.7
30 SE NEW RVR IN 0825      84                N/A     2/ 8
27 SE WRIGHTSVLE 0808   81 82   90/  2/  4 1018.9
5 SE WRIGHTSVLE  0808   81 83  200/  2/  4 1019.7
225 S CAPE HAT   0850   81 84   20/  8/ 12 1016.4    4/ 7   3/ 7
41 SE CHARLESTON 0850   82 85   50/  6/  8 1017.5    3/ 7   3/ 7

$$




USA.gov is the U.S. government's official web portal to all federal, state and local government web resources and services.